This demonstration page uses our WeatherBlox Daily Observations layout. Learn more.

Left ArrowRight Arrow

53.62937, 11.41316

Hourly Observations for July 2, 2022

Temp ( °F °C ) Dew Point ( °F °C ) Humidity (%) Winds ( mph kmh ) Pressure ( in mb ) Visibility ( mi km ) Precip ( " mm )
12:20 am 00:20 Mostly Clear 57 14 55 13 94 94 SSW 3 6 30.12 1020 30 48 N/A
12:50 am 00:50 Mostly Clear 57 14 55 13 94 94 VRB 2 4 30.12 1020 30 48 N/A
1:20 am 01:20 Mostly Clear 55 13 55 13 100 100 VRB 2 4 30.12 1020 4 6 N/A
1:50 am 01:50 Mostly Cloudy 55 13 54 12 94 94 VRB 1 2 30.12 1020 1 1 N/A
2:20 am 02:20 Mostly Cloudy 55 13 54 12 94 94 VRB 2 4 30.12 1020 0 0 N/A
2:50 am 02:50 Mostly Cloudy 54 12 52 11 94 94 VRB 1 2 30.12 1020 0 0 N/A
3:20 am 03:20 Mostly Cloudy 54 12 52 11 94 94 VRB 2 4 30.12 1020 0 0 N/A
3:50 am 03:50 Mostly Cloudy 54 12 54 12 100 100 SSW 3 6 30.12 1020 0 0 N/A
4:20 am 04:20 Mostly Cloudy 52 11 50 10 94 94 VRB 1 2 30.12 1020 0 0 N/A
4:50 am 04:50 Mostly Cloudy 52 11 50 10 94 94 VRB 2 4 30.15 1021 0 0 N/A
5:20 am 05:20 Mostly Cloudy 52 11 52 11 100 100 VRB 2 4 30.15 1021 0 0 N/A
5:50 am 05:50 Mostly Sunny 54 12 54 12 100 100 VRB 2 4 30.15 1021 0 0 N/A
6:20 am 06:20 Mostly Sunny 54 12 54 12 100 100 S 3 6 30.15 1021 7 11 N/A
6:50 am 06:50 Mostly Sunny 55 13 55 13 100 100 S 3 6 30.15 1021 7 11 N/A
7:20 am 07:20 Mostly Sunny 57 14 55 13 94 94 S 3 6 30.18 1022 7 11 N/A
7:50 am 07:50 Mostly Sunny 59 15 57 14 94 94 VRB 2 4 30.18 1022 7 11 N/A
8:20 am 08:20 Mostly Sunny 61 16 55 13 83 83 VRB 3 6 30.18 1022 7 11 N/A
8:50 am 08:50 Mostly Sunny 64 18 57 14 78 78 VRB 3 6 30.18 1022 7 11 N/A
9:20 am 09:20 Mostly Sunny 64 18 55 13 73 73 VRB 5 7 30.21 1023 7 11 N/A
9:50 am 09:50 Mostly Sunny 66 19 54 12 64 64 VRB 7 11 30.21 1023 7 11 N/A
10:20 am 10:20 Mostly Sunny 68 20 52 11 56 56 W 7 11 30.21 1023 7 11 N/A
10:50 am 10:50 Mostly Sunny 68 20 52 11 56 56 W 7 11 30.21 1023 7 11 N/A
11:20 am 11:20 Mostly Sunny 70 21 52 11 53 53 W 7 11 30.21 1023 30 48 N/A
11:50 am 11:50 Partly Cloudy 70 21 52 11 53 53 W 6 9 30.21 1023 30 48 N/A
12:20 pm 12:20 Partly Cloudy 72 22 50 10 47 47 VRB 6 9 30.21 1023 30 48 N/A
12:50 pm 12:50 Mostly Sunny 72 22 46 8 41 41 VRB 7 11 30.18 1022 7 11 N/A
1:20 pm 13:20 Mostly Sunny 72 22 48 9 44 44 VRB 7 11 30.18 1022 7 11 N/A
1:50 pm 13:50 Mostly Sunny 75 24 50 10 41 41 VRB 7 11 30.18 1022 7 11 N/A
2:20 pm 14:20 Mostly Sunny 72 22 46 8 41 41 VRB 6 9 30.18 1022 7 11 N/A
2:50 pm 14:50 Mostly Sunny 75 24 48 9 39 39 VRB 7 11 30.18 1022 7 11 N/A
3:20 pm 15:20 Mostly Sunny 75 24 46 8 36 36 VRB 7 11 30.18 1022 7 11 N/A
3:50 pm 15:50 Mostly Sunny 75 24 46 8 36 36 SSW 6 9 30.15 1021 7 11 N/A
4:20 pm 16:20 Mostly Sunny 75 24 48 9 39 39 VRB 6 9 30.15 1021 7 11 N/A
4:50 pm 16:50 Mostly Sunny 73 23 50 10 44 44 SSW 3 6 30.15 1021 7 11 N/A
5:20 pm 17:20 Mostly Sunny 73 23 50 10 44 44 VRB 5 7 30.15 1021 7 11 N/A
5:50 pm 17:50 Mostly Sunny 77 25 50 10 39 39 VRB 3 6 30.15 1021 7 11 N/A
6:20 pm 18:20 Mostly Sunny 75 24 50 10 41 41 VRB 2 4 30.12 1020 7 11 N/A
6:50 pm 18:50 Mostly Sunny 75 24 50 10 41 41 SSE 6 9 30.12 1020 7 11 N/A
7:20 pm 19:20 Mostly Sunny 75 24 50 10 41 41 SW 3 6 30.12 1020 7 11 N/A
7:50 pm 19:50 Mostly Sunny 75 24 50 10 41 41 VRB 2 4 30.12 1020 7 11 N/A
8:20 pm 20:20 Mostly Sunny 72 22 52 11 50 50 E 5 7 30.09 1019 7 11 N/A
8:50 pm 20:50 Mostly Sunny 70 21 54 12 57 57 ENE 3 6 30.09 1019 7 11 N/A
9:20 pm 21:20 Mostly Sunny 64 18 54 12 68 68 E 3 6 30.09 1019 7 11 N/A
9:50 pm 21:50 Mostly Sunny 64 18 55 13 73 73 ENE 5 7 30.09 1019 7 11 N/A
10:20 pm 22:20 Mostly Clear 63 17 55 13 77 77 ENE 3 6 30.09 1019 30 48 N/A
10:50 pm 22:50 Mostly Clear 63 17 55 13 77 77 E 5 7 30.09 1019 30 48 N/A
11:20 pm 23:20 Mostly Clear 61 16 55 13 83 83 VRB 1 2 30.09 1019 30 48 N/A
11:50 pm 23:50 Mostly Clear 61 16 55 13 83 83 E 2 4 30.09 1019 30 48 N/A

Powered by AerisWeather